Location: Sungai Ketit
(2.6833°N, 113.2333°E)
Time: 20:57:45
(UTC+00:00)

Delta 7925 Rocket - Pass Details

Date: 23 May 2024
Orbit: 645 x 1644 km, 26.3° (Epoch: 19 June)

Event Time Altitude Azimuth Distance (km) Brightness Sun altitude
Rises 10:58:10 0° 240° (WSW) 3,684 7.6 -7.0°
Reaches altitude 10° 11:01:06 10° 239° (WSW) 2,579 6.8 -7.7°
Maximum altitude 11:07:06 80° 153° (SSE) 776 3.5 -9.1°
Drops below altitude 10° 11:12:00 10° 66° (ENE) 2,117 5.4 -10.3°
Enters shadow 11:13:27 - 65° (ENE) 2,676 5.9 -10.6°
